Other Public Products
Issued by NWS Grand Forks, ND

Home | Current Version | Previous Version | Text Only | Print | Product List | Glossary On
Versions: 1 2 3 4 5 6 7 8 9 10 11 12 13 14 15 16 17 18 19 20 21 22 23 24 25 26 27 28 29 30 31 32 33 34 35 36 37 38 39 40 41 42 43 44 45 46 47 48 49 50
000
FPUS83 KFGF 290910
OPUFGF
PRAIRIE TO PINES WEATHER ROUNDUP
NATIONAL WEATHER SERVICE EASTERN NORTH DAKOTA/GRAND FORKS ND
400 AM CDT TUE JUL 29 2014

 **SATELLITE DATA USED TO AUGMENT SKY COVER AT AUTOMATED STATIONS**
 *****  WEATHER ACROSS EASTERN NORTH DAKOTA  *****

CITY           SKY/WX    TMP DP  RH WIND       PRES   REMARKS
GRAND FORKS    CLEAR     53  51  93 W3        30.17S
GRAND FORKS AF CLEAR     54  53  99 W7        30.18F
GRAND CITY NWS   N/A     45 N/A N/A MISG        N/A
BUXTON         NOT AVBL
DEVILS LAKE    CLEAR     57  54  88 CALM      30.20S
FARGO          CLEAR     54  51  90 W3        30.18S
WAHPETON ARPT  SUNNY     50  46  87 CALM      30.19S
$$

 *****  WEATHER ACROSS CENTRAL AND WESTERN NORTH DAKOTA  *****

CITY           SKY/WX    TMP DP  RH WIND       PRES   REMARKS
JAMESTOWN      CLEAR     55  51  86 CALM      30.21F
BISMARCK       CLEAR     50  49  96 E3        30.24S
MINOT          CLEAR     56  53  90 CALM      30.21S
MINOT AFB      CLEAR     54  54  99 W2        30.21S
GARRISON         N/A     54  53  97 CALM      30.22F
WILLISTON      CLEAR     55  52  89 CALM      30.22S
DICKINSON      CLEAR     54  50  86 S8        30.23S
HETTINGER      PTCLDY    50  46  86 CALM      30.26S
$$

 *****  OTHER OBSERVATIONS NORTHEAST NORTH DAKOTA  *****

CITY           SKY/WX    TMP DP  RH WIND       PRES   REMARKS
WALHALLA         N/A     50  50 100 CALM        N/A
LANGDON        FAIR      46  46 100 W3        30.20S
CAVALIER       FAIR      54  50  87 W3        30.17F
GRAFTON        FAIR      54  54 100 NW5       30.17S
CANDO          FAIR      50  48  93 CALM      30.22S
FORT TOTTEN      N/A     53  51  93 CALM      29.95
ROLLA          PTSUNNY   50  50 100 CALM      30.23S
RUGBY          FAIR      54  54 100 CALM      30.21F
 ***** THE ABOVE OBSERVATIONS ARE NON NWS ARE NOT QUALITY
        CONTROLLED AND MAY MIS-REPORT RAIN FOR SNOW...
$$

 *****  OTHER OBSERVATIONS SOUTHEAST NORTH DAKOTA *****

CITY           SKY/WX    TMP DP  RH WIND       PRES   REMARKS
COOPERSTOWN    NOT AVBL
VALLEY CITY    FAIR      54  54 100 CALM      30.21S
OAKES          NOT AVBL
GWINNER        SUNNY     54  54 100 W5        30.21F
SHEYENNE NWR     N/A     52  50  94 NW3       29.95S
BUFFALO        NOT AVBL
WYNDMERE       NOT AVBL
 ***** THE ABOVE OBSERVATIONS ARE NON NWS ARE NOT QUALITY
       CONTROLLED AND MAY MIS-REPORT RAIN FOR SNOW...
$$

  *****  WEATHER ACROSS NORTHERN MINNESOTA  *****

CITY           SKY/WX    TMP DP  RH WIND       PRES   REMARKS
FLAG ISLAND    CLEAR     63  57  82 NW16      30.11S
WARROAD        CLEAR     57  54  88 W6        30.14S
ROSEAU         CLEAR     57  52  82 W6        30.14F
HALLOCK        CLEAR     54  52  94 CALM      30.16F
THF RVR FALLS  CLEAR     57  54  88 CALM      30.17S
HALSTAD          N/A     52  50  93 W6          N/A
FOSSTON        CLEAR     48  46  93 CALM      30.17F
BAUDETTE       PTCLDY    58  56  93 W3        30.13F
WASKISH        CLEAR     61  57  88 NW8       30.13F
CROOKSTON      CLEAR     54  52  94 CALM      30.18S
$$
  *****  WEATHER ACROSS CENTRAL AND WEST MINNESOTA  *****

CITY           SKY/WX    TMP DP  RH WIND       PRES   REMARKS
BEMIDJI        CLEAR     51  50  95 NW6       30.15F
PARK RAPIDS    CLEAR     50  49  96 NW5       30.16F
WADENA         CLEAR     54  52  94 CALM      30.16F
DETROIT LAKES  CLEAR     57  54  88 NW6       30.19S
MOORHEAD       CLEAR     55  55 100 CALM      30.19S
FERGUS FALLS   CLEAR     54  52  94 CALM      30.19S
ELBOW LAKE     FAIR      55  53  92 NW6       30.18F
MORRIS MN      CLEAR     52  50  93 NW5       30.18S
STAPLES        CLEAR     52  52 100 W3        30.16S
WHEATON        CLEAR     54  52  94 W3        30.21S
$$
  *****  WEATHER ELSEWHERE ACROSS MINNESOTA  *****

CITY           SKY/WX    TMP DP  RH WIND       PRES   REMARKS
DULUTH         PTCLDY    55  52  89 NW5       30.09F
INTRNTL FALLS  PTCLDY    54  54 100 CALM      30.09F
ELY            PTCLDY    55  52  88 W5        30.08S
CLOQUET        CLEAR     55  52  88 CALM      30.10F
BRAINERD       CLEAR     59  53  80 NW3       30.14F
HIBBING        CLEAR     49  47  93 CALM      30.11S
ALEXANDRIA     CLEAR     56  53  90 W6        30.19S
SAINT CLOUD    CLEAR     58  53  84 NW3       30.14S
MINNEAPOLIS    CLEAR     61  56  83 NW6       30.12F
$$

  *****  WEATHER ACROSS SOUTH DAKOTA  *****

CITY           SKY/WX    TMP DP  RH WIND       PRES   REMARKS
SIOUX FALLS    CLEAR     53  51  93 CALM      30.21F
BROOKINGS      NOT AVBL
WATERTOWN      CLEAR     51  49  92 CALM      30.21F
HURON          PTCLDY    51  49  92 CALM      30.21F
SISSETON         N/A     51  50  96 CALM      30.19S
ABERDEEN       CLEAR     47  45  93 CALM      30.22S
MITCHELL       PTCLDY    55  52  89 W3        30.22S
PIERRE         CLEAR     52  50  93 NE5       30.21F
MOBRIDGE       CLEAR     55  52  89 SE6       30.21F
RAPID CITY     CLEAR     52  49  89 NE3       30.26F
$$

  *****  SOME WEATHER IN NEARBY STATES *****

CITY           SKY/WX    TMP DP  RH WIND       PRES   REMARKS
GLASGOW MT     PTCLDY    62  48  60 E8        30.19S
GREAT FALLS MT PTCLDY    66  47  50 S5        30.17R
CHEYENNE WY    PTCLDY    57  52  83 W5        30.31S
SCOTTSBLUFF NE PTCLDY    62  58  86 E6        30.21S
OMAHA NE       CLEAR     58  55  90 NW5       30.18F
DES MOINES IA  CLEAR     60  56  86 CALM      30.15F
DAVENPORT IA   CLEAR     51  49  92 W7        30.11S
CHICAGO IL     CLEAR     61  51  70 NW5       30.03S
EAU CLAIRE WI  CLEAR     56  53  90 SW3       30.07S
LA CROSSE WI   CLEAR     58  54  86 SE3       30.07F
$$

  *****  SOME NATIONAL WEATHER *****

CITY           SKY/WX    TMP DP  RH WIND       PRES   REMARKS
LA GUARDIA NY  PTCLDY    65  54  67 NW13      29.77R
RALEIGH NC     MOCLDY    64  57  78 CALM      29.91R
ATLANTA GA     CLEAR     68  61  78 NW8       29.96S
NEW ORLEANS LA MOCLDY    81  69  67 NE14      29.98F
OKLAHOMA CITY  CLOUDY    74  64  71 CALM      30.15F
ALBUQUERQUE NM LGT RAIN  67  59  75 E9        30.31S
SALT LAKE CITY LGT RAIN  68  63  84 CALM      30.20F
LOS ANGELES CA CLEAR     68  61  78 E5        30.02S
BOISE ID       MOCLDY    80  49  33 E9        30.06R
SEATTLE WA     CLEAR     70  52  52 NE9       30.09S
$$

*** WEATHER ACROSS MANITOBA...SASKATCHEWAN AND ONTARIO ***
                ***ONTARIO***

CITY           SKY/WX    TMP DP  RH WIND       PRES   REMARKS
GERALDTON      CLEAR     52  52 100 NW8       29.95S FOG
THUNDER BAY    MOCLDY    57  55  94 SW7       29.98S
SIOUX LOOKOUT  PTCLDY    54  54 100 N2        30.03F
TORONTO        MOCLDY    59  52  77 NW10      29.88R
BIG TROUT LK   CLEAR     50  46  87 NE6       30.07R
PICKLE LAKE    NOT AVBL
DRYDEN         CLEAR     57  54  88 W7        30.06S
KENORA         MOCLDY    59  55  88 NW8       30.11F
$$
                *** MANITOBA***

CITY           SKY/WX    TMP DP  RH WIND       PRES   REMARKS
BRANDON        CLEAR     50  48  93 NW7       30.21S
DAUPHIN        CLEAR     52  50  93 W8        30.19S
ISLAND LAKE    MOCLDY    61  55  82 NW3       30.05F
PILOT MOUND      N/A     48  46  93 W2          N/A
THE PAS        CLEAR     54  52  94 CALM      30.16S
THOMPSON       PTCLDY    50  48  93 W2        30.09S
WINNIPEG       CLEAR     54  52  94 W8        30.17S
LYNN LAKE      CLEAR     54  52  94 W2        30.12R
CHURCHILL      FOG       45  45 100 SE6       30.17S VSB 1/2
GILLAM         FOG       52  52 100 NE6       30.12R VSB 1/4
$$
                ***SASKATCHEWAN***

CITY           SKY/WX    TMP DP  RH WIND       PRES   REMARKS
ESTEVAN        PTCLDY    57  55  94 E2        30.22F
KINDERSLEY     CLEAR     57  54  88 S6        30.22R
LLOYDMINSTER   CLEAR     61  57  88 S6        30.20F
PRINCE ALBERT  FOG       54  54 100 CALM      30.19F VSB 1/2
REGINA         PTCLDY    59  57  94 VRB5      30.22S



USA.gov is the U.S. government's official web portal to all federal, state and local government web resources and services.